Location: *
(41.7492°S, 135.4150°W)
Time: 04:54:39
(UTC+00:00)

AO-27 - Pass Details

Date: 29 June 2022
Orbit: 786 x 796 km, 98.9° (Epoch: 14 August)

Event Time Altitude Azimuth Distance (km) Brightness Sun altitude
Rises 15:44:27 0° 24° (NNE) 3,295 11.7 -8.4°
Reaches altitude 10° 15:46:47 10° 26° (NNE) 2,373 11.0 -8.0°
Maximum altitude 15:51:59 67° 107° (ESE) 873 8.1 -7.1°
Drops below altitude 10° 15:57:14 10° 188° (S) 2,399 9.8 -6.2°
Sets 15:59:36 0° 191° (S) 3,335 10.5 -5.8°
